Regional Weather Roundup
Issued by NWS

Home | Current Version | Previous Version | Graphics & Text | Print | Product List | Glossary On
Versions: 1 2 3 4 5 6 7 8 9 10 11 12 13 14 15 16 17 18 19 20 21 22 23 24 25 26 27 28 29 30 31 32 33 34 35 36 37 38 39 40 41 42 43 44 45 46 47 48 49 50
000
ASUS43 KLOT 111808
RWRIL

ILLINOIS REGIONAL WEATHER ROUNDUP
NATIONAL WEATHER SERVICE CHICAGO/ROMEOVILLE IL
1200 PM CST THU FEB 11 2016

NOTE: "FAIR" INDICATES FEW OR NO CLOUDS BELOW 12,000 FEET WITH NO
SIGNIFICANT WEATHER AND/OR OBSTRUCTIONS TO VISIBILITY.

* THESE STATIONS ARE NOT UNDER NWS QUALITY CONTROL. THEY ALSO MAY NOT
  REPORT WEATHER SUCH AS PRECIPITATION OR FOG.

ILZ001-002-007-009-015-016-024-111900-
NORTHWEST ILLINOIS

CITY           SKY/WX    TMP DP  RH WIND       PRES   REMARKS
MOLINE         SUNNY     20   0  41 NE3       30.35F
6HR MIN TEMP:  10; 6HR MAX TEMP:  21;

STERLING*      SUNNY     19   3  49 W3        30.33F
SAVANNA*       SUNNY     17   0  46 SW3       30.35F
$$

ILZ003-004-008-010-011-017-018-111900-
NORTH CENTRAL ILLINOIS

CITY           SKY/WX    TMP DP  RH WIND       PRES   REMARKS
ROCKFORD       MOSUNNY   17   3  54 W7        30.35F WCI   8
6HR MIN TEMP:   6; 6HR MAX TEMP:  17;

FREEPORT*      SUNNY     15   3  57 NE5       30.35F WCI   8
ROCHELLE*      SUNNY     16   3  56 NW5       30.34S WCI   9
DE KALB*       SUNNY     17   5  59 NW7       30.32S WCI   7
$$

ILZ005-006-012>014-019>023-111900-
NORTHEAST ILLINOIS

CITY           SKY/WX    TMP DP  RH WIND       PRES   REMARKS
CHICAGO-OHARE  MOSUNNY   17   1  49 VRB3      30.32S
6HR MIN TEMP:   7; 6HR MAX TEMP:  17;

CHICAGO-MIDWAY MOSUNNY   18  -1  43 N8        30.32F WCI   8
6HR MIN TEMP:   9; 6HR MAX TEMP:  18;

AURORA         SUNNY     18   5  57 NW10      30.33F WCI   6
6HR MIN TEMP:   4; 6HR MAX TEMP:  18;

LANSING*       SUNNY     19   3  49 N3        30.32S
JOLIET*        SUNNY     21   3  46 NW6       30.34S WCI  13
WAUKEGAN       SUNNY     16   1  51 NW8       30.30S WCI   5
6HR MIN TEMP:   3; 6HR MAX TEMP:  16;

DUPAGE AIRPORT SUNNY     17   1  49 VRB6      30.31F WCI   9
6HR MIN TEMP:   4; 6HR MAX TEMP:  17;

KANKAKEE*      SUNNY     20   1  44 W5        30.33F WCI  13
WHEELING       SUNNY     17   2  51 N9        30.33S WCI   6
6HR MIN TEMP:   6; 6HR MAX TEMP:  17;

MORRIS*        SUNNY     18   4  54 W7        30.32R WCI   9
ROMEOVILLE*    SUNNY     19   0  45 W3        30.32F
NORTHERLY ISL    N/A     19  -1  41 W1          N/A
$$

LMZ740>746-111900-
SOUTHERN LAKE MICHIGAN

STATION/POSITION SKY/WX   TEMP    WIND        PRES    VSBY  WAVE
                          AIR SEA DIR/SP/G                  HT/PER
                          (F)     (DEG/KT/KT) (MB)    (MI)  (FT/S)
HARRISON CRIB              15     290/  7/  8   N/A
BURNHAM HARBOR             20      CALM  /  8   N/A
CALUMET HARBOR             16     280/  4/  8 1026.0S
BURNS HARBOR               18     300/ 14/ 21 1026.8R
MICHIGAN CITY              20     310/ 13/ 16   N/A
$$

ILZ025>027-034>036-040-047-049-050-058-095>099-111900-
WEST-CENTRAL ILLINOIS

CITY           SKY/WX    TMP DP  RH WIND       PRES   REMARKS
QUINCY         SUNNY     20   5  52 N5        30.33F WCI  13
GALESBURG*     SUNNY     20   4  50 CALM      30.34F
MACOMB*        SUNNY     20   5  52 CALM      30.37F
JACKSONVILLE*  SUNNY     21   8  55 CALM      30.35F
PITTSFIELD*    SUNNY     22   7  52 NE5       30.34F WCI  16
$$

ILZ028>032-037-038-041>044-048-051>054-059>061-111900-
CENTRAL ILLINOIS

CITY           SKY/WX    TMP DP  RH WIND       PRES   REMARKS
PONTIAC        SUNNY     19   7  59 CALM      30.35S
BLOOMINGTON    SUNNY     21   3  45 CALM      30.33F
DECATUR        SUNNY     23   6  48 NE6       30.34F WCI  16
PEORIA         SUNNY     22   1  40 VRB3      30.35F
6HR MIN TEMP:   9; 6HR MAX TEMP:  22;

LACON*         SUNNY     20  -2  38 CALM      30.36S
LINCOLN*       SUNNY     23   8  53 N3        30.35F
SPRINGFIELD    SUNNY     23   5  46 CALM      30.35F
6HR MIN TEMP:  11; 6HR MAX TEMP:  24;

TAYLORVILLE    SUNNY     23   9  54 NW3       30.35S
$$

ILZ033-039-045-046-055>057-062-063-111900-
EAST-CENTRAL ILLINOIS

CITY           SKY/WX    TMP DP  RH WIND       PRES   REMARKS
CHAMPAIGN      SUNNY     21   3  45 N7        30.33S WCI  12
RANTOUL*       SUNNY     21   4  47 NW5       30.33S WCI  15
MATTOON        SUNNY     20   5  52 N9        30.32F WCI   9
PARIS*         SUNNY     20   8  58 CALM      30.34F
$$

ILZ079-100>102-111900-
SOUTHWEST ILLINOIS

CITY           SKY/WX    TMP DP  RH WIND       PRES   REMARKS
ALTON          MOSUNNY   23   9  54 N6        30.35F WCI  16
BELLEVILLE     SUNNY     27  11  49 VRB5      30.34S WCI  22
CAHOKIA*       SUNNY     28  10  46 NE7       30.35F WCI  21
SPARTA*        PTSUNNY   26  17  70 N6        30.34S WCI  19
$$

ILZ064>066-069>071-074>076-080>082-084>086-088>090-092>094-111900-
SOUTH-CENTRAL ILLINOIS

CITY           SKY/WX    TMP DP  RH WIND       PRES   REMARKS
CARBONDALE     MOSUNNY   29  17  61 NE9       30.32F WCI  20
6HR MIN TEMP:  22; 6HR MAX TEMP:  29;

CAIRO*         SUNNY     35  27  72 NE10      30.30S WCI  27
EFFINGHAM*     SUNNY     24  10  55 NW5       30.35S WCI  18
MARION         MOSUNNY   30  19  64 N9        30.32F WCI  22
MT. VERNON     CLOUDY    27  10  50 CALM      30.32F
CENTRALIA*     PTSUNNY   26  10  51 NW6       30.33S WCI  20
SALEM*         SUNNY     26  11  54 N6        30.33F WCI  19
METROPOLIS*    MOSUNNY   34  27  75 N7        30.30F WCI  27
$$

ILZ067-068-072-073-078-083-087-091-111900-
SOUTHEAST ILLINOIS

CITY           SKY/WX    TMP DP  RH WIND       PRES   REMARKS
LAWRENCEVILLE  SUNNY     26  10  50 N6        30.33F WCI  19
FLORA*         SUNNY     28   7  41 NE5       30.33F WCI  22
FAIRFIELD*     SUNNY     28  11  48 N6        30.32F WCI  21
HARRISBURG*    CLOUDY    28  20  73 N8        30.33F WCI  20
ROBINSON*      SUNNY     24  10  57 N7        30.34F WCI  15
CARMI*         MOSUNNY   27  16  61 CALM      30.32F
$$

ABBREVIATIONS USED IN REMARKS
   TC - TEMPERATURE IN CELSIUS
  WCI - WIND CHILL INDEX
   HX - HEAT INDEX
  VSB - VISIBILITY
$$




USA.gov is the U.S. government's official web portal to all federal, state and local government web resources and services.